Topeka, KS

8:22 AM CST on November 21, 2019 (GMT -0600)
Billard Municipal

Weather History for KTOP - October, 2019

Change the Weather History Date:

Monday, October 21, 2019

  Actual Average Record
Temperature  
Mean Temperature 52 °F 55 °F  
Max Temperature 58 °F 67 °F 91 °F (1940)
Min Temperature 45 °F 43 °F 24 °F (1987)
Degree Days  
Heating Degree Days 13 11  
Month to date heating degree days 190 166  
Since 1 July heating degree days 190 233  
Cooling Degree Days 0 0  
Month to date cooling degree days 20 25  
Year to date cooling degree days 1609 1418  
Growing Degree Days 1 (Base 50)    
Moisture  
Dew Point 38 °F    
Average Humidity 66    
Maximum Humidity 89    
Minimum Humidity 43    
Precipitation  
Precipitation 0.00 in 0.10 in 1.13 in (1908)
Month to date precipitation 1.77 2.17  
Year to date precipitation 45.16 32.40  
Snow  
Snow 0.00 in 0.00 in 0.10 in (1930)
Month to date snowfall T 0.1  
Year to date snowfall 18.5 11.4  
Since 1 July snowfall T 0.1  
Snow Depth 0.00 in    
Sea Level Pressure  
Sea Level Pressure 29.63 in    
Wind  
Wind Speed 13 mph (West)    
Max Wind Speed 28 mph    
Max Gust Speed 44 mph    
Visibility 10 miles    
Events      
T = Trace of Precipitation, MM = Missing Value Source: NWS Daily Summary

Daily Weather History Graph

Daily Weather History Graph

Search for Another Location

Airport or City:

Astronomy

Oct. 21, 2019 Rise Set
Actual Time 7:37 AM CDT 6:35 PM CDT
Civil Twilight 7:10 AM CDT 7:02 PM CDT
Nautical Twilight 6:39 AM CDT 7:33 PM CDT
Astronomical Twilight 6:08 AM CDT 8:04 PM CDT
Moon No Moon Rise 2:55 PM CDT
Length of Visible Light 11h 51m
Length of Day
10h 57m
Waning Gibbous, 48% of the Moon is Illuminated
Oct 21
Waning Gibbous
Oct 27
New
Nov 4
First Quarter
Nov 12
Full
Nov 19
Last Quarter

Hourly Weather History & Observations

Time (CDT) Temp. Windchill Dew Point Humidity Pressure Visibility Wind Dir Wind Speed Gust Speed Precip Events Conditions
12:53 AM 52.0 °F - 48.9 °F 89% 29.53 in 10.0 mi Calm Calm - 0.00 in   Partly Cloudy
1:53 AM 52.0 °F - 48.9 °F 89% 29.54 in 10.0 mi SW 6.9 mph - N/A   Mostly Cloudy
2:53 AM 52.0 °F - 44.1 °F 74% 29.52 in 10.0 mi WSW 6.9 mph - N/A   Clear
3:53 AM 50.0 °F - 37.9 °F 63% 29.53 in 10.0 mi SW 6.9 mph - N/A   Clear
4:53 AM 48.0 °F - 37.0 °F 66% 29.53 in 10.0 mi WSW 10.4 mph 17.3 mph N/A   Clear
5:53 AM 46.9 °F - 37.0 °F 68% 29.54 in 10.0 mi WSW 10.4 mph 19.6 mph N/A   Clear
6:53 AM 46.0 °F 41.0 °F 36.0 °F 68% 29.54 in 10.0 mi West 10.4 mph 20.7 mph N/A   Clear
7:53 AM 45.0 °F 40.1 °F 36.0 °F 71% 29.54 in 10.0 mi WSW 9.2 mph - N/A   Clear
8:53 AM 46.9 °F - 36.0 °F 66% 29.55 in 10.0 mi WSW 9.2 mph 21.9 mph N/A   Clear
9:53 AM 51.1 °F - 37.0 °F 59% 29.54 in 10.0 mi WSW 13.8 mph 26.5 mph N/A   Clear
10:53 AM 53.1 °F - 36.0 °F 52% 29.56 in 10.0 mi West 15.0 mph 28.8 mph N/A   Overcast
11:53 AM 55.0 °F - 35.1 °F 47% 29.57 in 10.0 mi West 17.3 mph 31.1 mph N/A   Overcast
12:53 PM 55.0 °F - 36.0 °F 49% 29.60 in 10.0 mi West 15.0 mph 26.5 mph N/A   Overcast
1:53 PM 57.0 °F - 36.0 °F 45% 29.61 in 10.0 mi West 12.7 mph 27.6 mph N/A   Overcast
2:53 PM 57.9 °F - 37.9 °F 47% 29.62 in 10.0 mi West 18.4 mph 34.5 mph N/A   Mostly Cloudy
3:53 PM 55.9 °F - 39.0 °F 53% 29.65 in 10.0 mi West 13.8 mph 28.8 mph N/A   Overcast
4:53 PM 57.0 °F - 37.0 °F 47% 29.68 in 10.0 mi West 15.0 mph 28.8 mph N/A   Overcast
5:53 PM 55.9 °F - 35.1 °F 45% 29.70 in 10.0 mi West 18.4 mph 28.8 mph N/A   Overcast
6:53 PM 54.0 °F - 35.1 °F 49% 29.74 in 10.0 mi West 19.6 mph 35.7 mph N/A   Overcast
7:53 PM 52.0 °F - 37.0 °F 57% 29.78 in 10.0 mi West 16.1 mph 29.9 mph N/A   Overcast
8:53 PM 52.0 °F - 36.0 °F 54% 29.80 in 10.0 mi WNW 15.0 mph 31.1 mph N/A   Mostly Cloudy
9:53 PM 50.0 °F - 36.0 °F 59% 29.84 in 10.0 mi West 11.5 mph 21.9 mph N/A   Clear
10:53 PM 50.0 °F - 36.0 °F 59% 29.87 in 10.0 mi WNW 13.8 mph 23.0 mph N/A   Clear
11:53 PM 48.0 °F - 35.1 °F 61% 29.88 in 10.0 mi West 11.5 mph 24.2 mph N/A   Clear